Regional Weather Roundup
Issued by NWS

Home | Current Version | Previous Version | Text Only | Print | Product List | Glossary Off
Versions: 1 2 3 4 5 6 7 8 9 10 11 12 13 14 15 16 17 18 19 20 21 22 23 24 25 26 27 28 29 30 31 32 33 34 35 36 37 38 39 40 41 42 43 44 45 46 47 48 49 50

000
ASUS43 KDTX 250901
RWRMI
MICHIGAN HOURLY REGIONAL WEATHER ROUNDUP
NATIONAL WEATHER SERVICE DETROIT/PONTIAC MI
500 AM EDT SUN SEP 25 2016

NOTE: "FAIR" INDICATES FEW OR NO CLOUDS BELOW 12,000 FEET WITH NO
SIGNIFICANT WEATHER AND/OR OBSTRUCTION TO VISIBILITY.

MIZ047>049-052>055-059>063-066>070-074>076-081>083-251000-
SOUTHEAST LOWER MICHIGAN

CITY           SKY/WX    TMP DP  RH WIND       PRES   REMARKS
ADRIAN         CLEAR     53  49  86 E5        30.21S
ALMA           CLEAR     46  46 100 CALM      30.21F
ANN ARBOR      CLEAR     46  45  96 N3        30.19F
BAD AXE        CLEAR     41  40  97 CALM      30.22F
CARO           CLEAR     42  42  99 CALM      30.21F
DETROIT CITY   CLEAR     52  48  86 N3        30.20F
DETROIT        CLEAR     52  47  83 NE3       30.20F
FLINT          CLEAR     47  45  93 E3        30.22S
GROSSE ILE     CLEAR     56  47  72 E5        30.19S
HILLSDALE      CLEAR     52  46  82 E3        30.18F FOG
HOWELL         CLEAR     48  47  94 CALM      30.20S

CITY           SKY/WX    TMP DP  RH WIND       PRES   REMARKS
JACKSON        CLEAR     52  48  86 S3        30.19F
LAMBERTVILLE   CLEAR     51  49  93 CALM      30.20S
LANSING        CLEAR     50  45  83 E3        30.21S
LAPEER         FAIR      42  42  99 CALM      30.21F
MASON          CLEAR     50  47  87 S5        30.20S
MONROE         MOCLDY    52  50  92 CALM      30.19S
MT. CLEMENS    CLEAR     49  46  89 E5        30.18F
PONTIAC        CLEAR     48  44  86 CALM      30.20F
PORT HOPE        N/A     51  47  86 S3        30.21F
PORT HURON     CLEAR     43  41  93 CALM      30.22S
TRI CITIES     CLEAR     49  46  90 E5        30.22F
MIDLAND        FAIR      43  43 100 CALM      30.21S
TROY           CLEAR     53  46  76 CALM      30.22F
SAGINAW HB     CLEAR     45  43  93 CALM      30.21S
$$
MIZ043>046-050>051-056>058-064>065-071>073-077>080-251000-
SOUTHWEST LOWER MICHIGAN

CITY           SKY/WX    TMP DP  RH WIND       PRES   REMARKS
BATTLE CREEK   CLEAR     56  52  86 CALM      30.19S
BENTON HARBOR  MOCLDY    61  54  77 SE9       30.14F
BIG RAPIDS     CLEAR     49  47  93 CALM      30.19S
COLDWATER      CLEAR     55  52  92 E5        30.18S
FREMONT        FAIR      52  46  82 E6        30.17F
HOLLAND        CLEAR     55  52  89 E6        30.16F
GRAND RAPIDS   CLEAR     52  48  86 E5        30.18F
IONIA          FAIR      48  46  93 E3        30.19F
KALAMAZOO      CLEAR     56  52  86 CALM      30.18S
LUDINGTON      CLEAR     53  47  79 E8        30.15F
MARSHALL       CLEAR     53  51  92 CALM      30.18S
MUSKEGON       CLEAR     54  50  86 E9        30.16F
SOUTH HAVEN    CLEAR     60  56  88 SE3       30.16S
$$
MIZ016>042-251000-
NORTHERN LOWER MICHIGAN

CITY           SKY/WX    TMP DP  RH WIND       PRES   REMARKS
ALPENA         PTCLDY    40  37  89 CALM      30.23S
BEAVER ISLAND  CLEAR     54  48  80 SE6       30.18F
BELLAIRE       CLEAR     45  43  94 CALM      30.20S
CADILLAC       CLEAR     49  43  81 CALM      30.19F
CHARLEVOIX     CLEAR     50  45  83 SE5       30.22S
FRANKFORT      MOCLDY    55  45  68 SE6       30.16F
GAYLORD        CLEAR     47  41  80 S6        30.21F
GRAYLING       CLEAR     38  38  97 CALM      30.21F
HARBOR SPRINGS CLEAR     49  44  82 NE3       30.20S
HOUGHTON LAKE  CLEAR     39  38  96 CALM      30.22F
MANISTEE       CLEAR     49  46  90 E8        30.17F
OSCODA         PTCLDY    41  40  97 CALM      30.22S
PELLSTON       CLEAR     40  38  93 CALM      30.21F
ROGERS CITY    CLOUDY    48  42  81 S5        30.23F
TRAVERSE CITY  PTCLDY    53  46  77 CALM      30.17F
$$
MIZ007>008-015-251000-
EASTERN UPPER MICHIGAN

CITY           SKY/WX    TMP DP  RH WIND       PRES   REMARKS
KINROSS        CLOUDY    49  46  90 SE5       30.21S
MACKINAC ISLAN CLEAR     55  46  72 S12       30.20S
NEWBERRY       CLEAR     49  48  97 CALM      30.18S
S. S. MARIE    CLOUDY    53  49  86 CALM      30.20F
MUNISING         N/A     52  50  93 S8        30.13S
$$
MIZ004>006-011>014-085-251000-
CENTRAL UPPER MICHIGAN

CITY           SKY/WX    TMP DP  RH WIND       PRES   REMARKS
MANISTIQUE     CLEAR     60  55  84 S10       30.16S
ESCANABA       CLOUDY    64  57  78 S9        30.13F
MENOMINEE      CLOUDY    62  56  80 S9        30.13F
SAWYER-GWINN   CLOUDY    53  50  91 S8        30.12F
$$
MIZ001>003-009>011-084-251000-
WESTERN UPPER MICHIGAN

CITY           SKY/WX    TMP DP  RH WIND       PRES   REMARKS
IRON MOUNTAIN  CLOUDY    55  50  83 SE3       30.11F
HOUGHTON       PTCLDY    56  50  80 SE10      30.06F
COPPER HARBOR    N/A     61  53  75 SW8       30.06F
IRONWOOD       CLOUDY    60  57  89 VRB5      30.02S
$$

ABBREVIATIONS USED IN REMARKS
   TC - TEMPERATURE IN CELSIUS
  WCI - WIND CHILL INDEX
   HX - HEAT INDEX
  VSB - VISIBILITY





USA.gov is the U.S. government's official web portal to all federal, state and local government web resources and services.